Station Historical Data
Daily Summary for January 12, 2012 Units:  Metric    English   Both
« Previous Day
Next Day »
Daily Weekly Monthly Yearly Custom
  High: Low: Average:
Temperature: 7.9 °C -4.4 °C 2.5 °C
Dew Point: 7.3 °C -7.9 °C 1 °C
Humidity: 97% 72% 90%
Wind Speed: 32.2km/h 3.2km/h 11.9km/h
Wind Gust: 41.8km/h - -
Wind- - WSW
Pressure: 1015.8 hPa 1003.9 hPa -
Precipitation: 0.76 mm    
Historical Graphs
 
 
Tabular Data for January 12, 2012
Time Temperature Dew Point Pressure Wind Wind Speed Wind Gust Humidity Rainfall Rate (Hourly) Conditions
00:00 7.5 °C 6.9 °C 1004.6 hPa WSW 9.7 km/h 14.5 km/h 96% 0 mm
00:01 7.5 °C 6.9 °C 1004.6 hPa WSW 6.4 km/h 12.9 km/h 96% 0 mm
00:06 7.5 °C 6.9 °C 1004.6 hPa SSW 4.8 km/h 16.1 km/h 96% 0 mm
00:11 7.5 °C 6.9 °C 1004.6 hPa WSW 8 km/h 14.5 km/h 96% 0 mm
00:16 7.5 °C 6.9 °C 1004.6 hPa WSW 14.5 km/h 14.5 km/h 96% 0 mm
00:21 7.5 °C 6.9 °C 1004.6 hPa SW 8 km/h 14.5 km/h 96% 0 mm
00:26 7.5 °C 6.9 °C 1004.6 hPa West 6.4 km/h 11.3 km/h 96% 0 mm
00:31 7.6 °C 6.9 °C 1004.6 hPa West 11.3 km/h 16.1 km/h 96% 0 mm
00:36 7.6 °C 6.9 °C 1004.6 hPa WSW 4.8 km/h 12.9 km/h 96% 0 mm
00:41 7.6 °C 6.9 °C 1004.6 hPa WSW 9.7 km/h 14.5 km/h 96% 0 mm
00:46 7.6 °C 6.9 °C 1004.6 hPa SW 11.3 km/h 14.5 km/h 96% 0 mm
00:51 7.6 °C 6.9 °C 1004.6 hPa WSW 8 km/h 11.3 km/h 96% 0 mm
00:56 7.6 °C 7.1 °C 1004.6 hPa SW 6.4 km/h 9.7 km/h 97% 0 mm
01:01 7.6 °C 7.1 °C 1004.6 hPa SW 9.7 km/h 9.7 km/h 97% 0 mm
01:06 7.6 °C 7.1 °C 1004.3 hPa SW 9.7 km/h 9.7 km/h 97% 0 mm
01:11 7.6 °C 7.1 °C 1004.3 hPa SW 9.7 km/h 9.7 km/h 97% 0 mm
01:16 7.6 °C 7.1 °C 1004.3 hPa SW 9.7 km/h 9.7 km/h 97% 0 mm
01:21 7.6 °C 7.1 °C 1004.3 hPa SW 9.7 km/h 9.7 km/h 97% 0 mm
01:26 7.6 °C 7.1 °C 1004.3 hPa SW 9.7 km/h 9.7 km/h 97% 0 mm
01:31 7.6 °C 7.1 °C 1003.9 hPa SSW 3.2 km/h 9.7 km/h 97% 0 mm
01:36 7.6 °C 7.1 °C 1003.9 hPa SSW 8 km/h 9.7 km/h 97% 0 mm
01:41 7.6 °C 7.1 °C 1003.9 hPa SSW 4.8 km/h 9.7 km/h 97% 0 mm
01:46 7.6 °C 7.1 °C 1003.9 hPa SW 9.7 km/h 9.7 km/h 97% 0 mm
01:52 7.6 °C 7.1 °C 1004.3 hPa SW 9.7 km/h 12.9 km/h 97% 0 mm
01:57 7.6 °C 7.2 °C 1004.6 hPa SW 8 km/h 16.1 km/h 97% 0 mm
02:02 7.6 °C 7.2 °C 1004.6 hPa SSW 9.7 km/h 14.5 km/h 97% 0 mm
02:07 7.6 °C 7.2 °C 1004.6 hPa WSW 9.7 km/h 19.3 km/h 97% 0 mm
02:12 7.7 °C 7.2 °C 1005 hPa SSW 11.3 km/h 17.7 km/h 97% 0 mm
02:17 7.7 °C 7.2 °C 1005 hPa SW 9.7 km/h 19.3 km/h 97% 0 mm
02:22 7.7 °C 7.2 °C 1004.6 hPa SW 8 km/h 14.5 km/h 97% 0 mm
02:27 7.7 °C 7.3 °C 1004.6 hPa SW 16.1 km/h 16.1 km/h 97% 0 mm
02:32 7.7 °C 7.3 °C 1004.6 hPa SW 12.9 km/h 17.7 km/h 97% 0 mm
02:37 7.7 °C 7.3 °C 1004.6 hPa West 6.4 km/h 11.3 km/h 97% 0 mm
02:42 7.7 °C 7.3 °C 1005 hPa SW 9.7 km/h 19.3 km/h 97% 0 mm
02:47 7.8 °C 7.3 °C 1005 hPa SW 12.9 km/h 17.7 km/h 97% 0 mm
02:52 7.8 °C 7.3 °C 1005 hPa WSW 12.9 km/h 12.9 km/h 97% 0 mm
02:57 7.8 °C 7.3 °C 1005 hPa SW 12.9 km/h 17.7 km/h 97% 0 mm
03:02 7.8 °C 7.3 °C 1005 hPa WSW 6.4 km/h 12.9 km/h 97% 0 mm
03:07 7.8 °C 7.2 °C 1005 hPa SW 6.4 km/h 14.5 km/h 96% 0 mm
03:12 7.8 °C 7.2 °C 1005 hPa SW 12.9 km/h 12.9 km/h 96% 0 mm
03:17 7.8 °C 7.2 °C 1005 hPa SW 12.9 km/h 16.1 km/h 96% 0 mm
03:22 7.8 °C 7.2 °C 1005 hPa WSW 9.7 km/h 17.7 km/h 96% 0 mm
03:27 7.8 °C 7.2 °C 1004.6 hPa WSW 6.4 km/h 11.3 km/h 96% 0 mm
03:32 7.8 °C 7.2 °C 1005 hPa WSW 3.2 km/h 12.9 km/h 96% 0 mm
03:37 7.8 °C 7.2 °C 1004.6 hPa SW 16.1 km/h 16.1 km/h 96% 0 mm
03:42 7.9 °C 7.3 °C 1005 hPa SW 6.4 km/h 14.5 km/h 96% 0 mm
03:47 7.9 °C 7.3 °C 1004.6 hPa West 4.8 km/h 12.9 km/h 96% 0 mm
03:52 7.9 °C 7.3 °C 1005 hPa SW 11.3 km/h 12.9 km/h 96% 0 mm
03:57 7.9 °C 7.3 °C 1004.6 hPa SW 4.8 km/h 11.3 km/h 96% 0 mm
04:02 7.8 °C 7.2 °C 1004.6 hPa SW 6.4 km/h 8 km/h 96% 0 mm
04:07 7.8 °C 7.2 °C 1004.3 hPa South 6.4 km/h 9.7 km/h 96% 0 mm
04:12 7.8 °C 7.2 °C 1004.3 hPa SW 4.8 km/h 8 km/h 96% 0 mm
04:18 7.7 °C 7.1 °C 1004.3 hPa South 6.4 km/h 9.7 km/h 96% 0 mm
04:23 7.7 °C 7.1 °C 1004.3 hPa SW 4.8 km/h 11.3 km/h 96% 0 mm
04:28 7.7 °C 7.1 °C 1004.3 hPa SSW 6.4 km/h 9.7 km/h 96% 0 mm
04:33 7.7 °C 7.1 °C 1004.6 hPa SW 4.8 km/h 12.9 km/h 96% 0 mm
04:38 7.7 °C 7.1 °C 1004.3 hPa SSE 4.8 km/h 9.7 km/h 96% 0 mm
04:43 7.7 °C 7.1 °C 1004.3 hPa SSW 3.2 km/h 9.7 km/h 96% 0 mm
04:48 7.7 °C 7.1 °C 1004.3 hPa South 3.2 km/h 8 km/h 96% 0 mm
04:53 7.7 °C 7.1 °C 1004.3 hPa SSW 9.7 km/h 11.3 km/h 96% 0 mm
04:58 7.7 °C 7.1 °C 1003.9 hPa South 4.8 km/h 9.7 km/h 96% 0 mm
05:03 7.7 °C 7.1 °C 1003.9 hPa SSW 6.4 km/h 8 km/h 96% 0 mm
05:08 7.7 °C 7.1 °C 1003.9 hPa SSW 3.2 km/h 9.7 km/h 96% 0 mm
05:13 7.7 °C 7.1 °C 1004.3 hPa SW 11.3 km/h 11.3 km/h 96% 0 mm
05:18 7.7 °C 7.1 °C 1004.3 hPa SW 4.8 km/h 9.7 km/h 96% 0 mm
05:23 7.7 °C 7.1 °C 1003.9 hPa SSW 11.3 km/h 14.5 km/h 96% 0 mm
05:28 7.7 °C 7.1 °C 1003.9 hPa South 8 km/h 12.9 km/h 96% 0 mm
05:33 7.7 °C 6.9 °C 1003.9 hPa SSW 11.3 km/h 16.1 km/h 95% 0 mm
05:38 7.6 °C 6.8 °C 1003.9 hPa SW 8 km/h 14.5 km/h 95% 0 mm
05:43 7.6 °C 6.8 °C 1003.9 hPa SW 11.3 km/h 12.9 km/h 95% 0 mm
05:48 7.6 °C 6.7 °C 1003.9 hPa SW 8 km/h 17.7 km/h 94% 0 mm
05:53 7.6 °C 6.7 °C 1004.3 hPa SSW 11.3 km/h 14.5 km/h 94% 0 mm
05:58 7.6 °C 6.7 °C 1004.3 hPa SW 4.8 km/h 16.1 km/h 94% 0 mm
06:03 7.6 °C 6.7 °C 1004.3 hPa SW 14.5 km/h 25.7 km/h 94% 0 mm
06:08 7.6 °C 6.7 °C 1004.6 hPa SW 12.9 km/h 19.3 km/h 94% 0 mm
06:13 7.6 °C 6.7 °C 1004.3 hPa SW 17.7 km/h 17.7 km/h 94% 0 mm
06:18 7.6 °C 6.7 °C 1004.3 hPa SSW 9.7 km/h 17.7 km/h 94% 0 mm
06:23 7.5 °C 6.6 °C 1004.3 hPa SSW 16.1 km/h 19.3 km/h 94% 0 mm
06:28 7.4 °C 6.6 °C 1004.3 hPa SSW 6.4 km/h 12.9 km/h 94% 0 mm
06:33 7.4 °C 6.5 °C 1004.3 hPa SW 4.8 km/h 11.3 km/h 94% 0 mm
06:38 7.4 °C 6.5 °C 1003.9 hPa SSW 3.2 km/h 11.3 km/h 94% 0 mm
06:43 7.3 °C 6.4 °C 1003.9 hPa SW 6.4 km/h 9.7 km/h 94% 0 mm
06:48 7.3 °C 6.4 °C 1004.3 hPa SW 9.7 km/h 9.7 km/h 94% 0 mm
06:53 7.3 °C 6.4 °C 1004.3 hPa WSW 6.4 km/h 8 km/h 94% 0 mm
06:58 7.3 °C 6.4 °C 1004.3 hPa SSW 3.2 km/h 9.7 km/h 94% 0 mm
07:03 7.3 °C 6.4 °C 1004.3 hPa SW 4.8 km/h 8 km/h 94% 0 mm
07:08 7.3 °C 6.4 °C 1004.3 hPa SW 8 km/h 8 km/h 94% 0 mm
07:13 7.3 °C 6.4 °C 1004.3 hPa WSW 6.4 km/h 8 km/h 94% 0 mm
07:18 7.3 °C 6.6 °C 1004.3 hPa SSW 3.2 km/h 11.3 km/h 95% 0 mm
07:23 7.3 °C 6.6 °C 1004.3 hPa SW 3.2 km/h 8 km/h 95% 0 mm
07:28 7.3 °C 6.6 °C 1004.3 hPa South 6.4 km/h 9.7 km/h 95% 0 mm
07:33 7.3 °C 6.6 °C 1004.3 hPa SW 6.4 km/h 11.3 km/h 95% 0 mm
07:38 7.3 °C 6.7 °C 1004.3 hPa SSW 3.2 km/h 12.9 km/h 96% 0 mm
07:43 7.3 °C 6.7 °C 1004.3 hPa SSW 8 km/h 11.3 km/h 96% 0 mm
07:48 7.3 °C 6.7 °C 1004.3 hPa SSW 6.4 km/h 9.7 km/h 96% 0 mm
07:53 7.2 °C 6.6 °C 1004.3 hPa SSW 6.4 km/h 12.9 km/h 96% 0 mm
07:59 7.2 °C 6.6 °C 1004.3 hPa SSW 6.4 km/h 11.3 km/h 96% 0 mm
08:04 7.2 °C 6.6 °C 1004.3 hPa SW 11.3 km/h 14.5 km/h 96% 0 mm
08:09 7.3 °C 6.8 °C 1004.3 hPa SW 12.9 km/h 16.1 km/h 97% 0 mm
08:14 7.3 °C 6.8 °C 1004.3 hPa WSW 12.9 km/h 14.5 km/h 97% 0 mm
08:19 7.3 °C 6.9 °C 1004.3 hPa SW 9.7 km/h 14.5 km/h 97% 0 mm
08:24 7.3 °C 6.9 °C 1004.3 hPa SW 12.9 km/h 12.9 km/h 97% 0 mm
08:29 7.4 °C 6.9 °C 1003.9 hPa SW 11.3 km/h 16.1 km/h 97% 0 mm
08:34 7.4 °C 7 °C 1003.9 hPa SW 12.9 km/h 17.7 km/h 97% 0 mm
08:39 7.4 °C 7 °C 1003.9 hPa SSW 3.2 km/h 11.3 km/h 97% 0 mm
08:44 7.5 °C 7.1 °C 1003.9 hPa SW 16.1 km/h 16.1 km/h 97% 0 mm
08:49 7.5 °C 7.1 °C 1004.3 hPa SW 9.7 km/h 14.5 km/h 97% 0 mm
08:54 7.6 °C 7.1 °C 1003.9 hPa SSE 3.2 km/h 12.9 km/h 97% 0 mm
08:59 7.6 °C 7.1 °C 1003.9 hPa SW 8 km/h 12.9 km/h 97% 0 mm
09:04 7.6 °C 7.1 °C 1004.3 hPa SW 6.4 km/h 16.1 km/h 97% 0 mm
09:09 7.6 °C 7.2 °C 1004.3 hPa SW 12.9 km/h 16.1 km/h 97% 0 mm
09:14 7.6 °C 7.2 °C 1004.3 hPa SW 9.7 km/h 16.1 km/h 97% 0 mm
09:19 7.6 °C 7.2 °C 1004.3 hPa WSW 11.3 km/h 12.9 km/h 97% 0 mm
09:24 7.6 °C 7.2 °C 1004.3 hPa WSW 14.5 km/h 16.1 km/h 97% 0 mm
09:29 7.6 °C 7.2 °C 1004.3 hPa SW 11.3 km/h 14.5 km/h 97% 2.54 mm
09:34 7.6 °C 7.2 °C 1004.3 hPa WSW 8 km/h 16.1 km/h 97% 2.54 mm
09:40 7.3 °C 6.7 °C 1004.6 hPa West 17.7 km/h 25.7 km/h 96% 2.29 mm
09:45 6.9 °C 6.2 °C 1004.6 hPa West 6.4 km/h 20.9 km/h 95% 1.27 mm
09:50 6.6 °C 5.9 °C 1004.6 hPa West 12.9 km/h 24.1 km/h 95% 1.02 mm
09:55 6.4 °C 5.8 °C 1004.6 hPa WSW 6.4 km/h 25.7 km/h 96% 0 mm
10:00 6.3 °C 5.7 °C 1004.6 hPa WNW 11.3 km/h 22.5 km/h 96% 0 mm
10:05 6.2 °C 5.6 °C 1005 hPa WNW 14.5 km/h 19.3 km/h 96% 0 mm
10:10 6 °C 5.4 °C 1005 hPa WNW 9.7 km/h 22.5 km/h 96% 0 mm
10:15 5.7 °C 5 °C 1005 hPa WSW 9.7 km/h 17.7 km/h 95% 0 mm
10:20 5.5 °C 4.9 °C 1005 hPa WNW 8 km/h 14.5 km/h 96% 0 mm
10:25 5.4 °C 4.7 °C 1005 hPa WNW 16.1 km/h 16.1 km/h 95% 0 mm
10:30 5.1 °C 4.4 °C 1005 hPa West 16.1 km/h 19.3 km/h 95% 0 mm
10:35 4.9 °C 4 °C 1005 hPa WNW 14.5 km/h 27.4 km/h 94% 0 mm
10:36 4.8 °C 3.9 °C 1005 hPa West 14.5 km/h 20.9 km/h 94% 0 mm
10:41 4.8 °C 4.1 °C 1005 hPa WNW 8 km/h 17.7 km/h 95% 0 mm
10:46 4.8 °C 4.1 °C 1005 hPa West 9.7 km/h 17.7 km/h 95% 0 mm
10:51 4.8 °C 4.1 °C 1005 hPa West 9.7 km/h 17.7 km/h 95% 0 mm
10:56 4.8 °C 4.1 °C 1005 hPa West 9.7 km/h 11.3 km/h 95% 0 mm
11:01 4.8 °C 3.9 °C 1005 hPa West 6.4 km/h 12.9 km/h 94% 0 mm
11:06 4.8 °C 3.8 °C 1005 hPa West 8 km/h 14.5 km/h 93% 0 mm
11:12 4.9 °C 4 °C 1005 hPa WSW 11.3 km/h 12.9 km/h 94% 0 mm
11:17 4.9 °C 3.8 °C 1005 hPa West 9.7 km/h 14.5 km/h 93% 0 mm
11:22 4.9 °C 3.9 °C 1004.6 hPa WNW 3.2 km/h 14.5 km/h 93% 0 mm
11:27 5 °C 3.9 °C 1005 hPa West 6.4 km/h 12.9 km/h 93% 0 mm
11:32 4.9 °C 3.9 °C 1004.6 hPa West 8 km/h 12.9 km/h 93% 0 mm
11:37 4.9 °C 3.9 °C 1005 hPa West 11.3 km/h 11.3 km/h 93% 0 mm
11:42 4.9 °C 3.8 °C 1004.6 hPa WNW 8 km/h 14.5 km/h 93% 0 mm
11:47 4.9 °C 3.8 °C 1004.6 hPa West 14.5 km/h 14.5 km/h 93% 0 mm
11:52 4.9 °C 3.7 °C 1004.6 hPa WSW 22.5 km/h 22.5 km/h 92% 0 mm
11:57 4.9 °C 3.8 °C 1004.6 hPa West 24.1 km/h 24.1 km/h 93% 0 mm
12:02 4.8 °C 3.6 °C 1004.6 hPa West 12.9 km/h 27.4 km/h 92% 0 mm
12:07 4.7 °C 3.5 °C 1004.6 hPa WNW 16.1 km/h 24.1 km/h 92% 0 mm
12:12 4.3 °C 3.1 °C 1004.6 hPa WNW 17.7 km/h 30.6 km/h 92% 0 mm
12:17 3.8 °C 2.8 °C 1004.6 hPa WNW 14.5 km/h 22.5 km/h 93% 0 mm
12:22 3.2 °C 2.3 °C 1004.6 hPa WNW 24.1 km/h 24.1 km/h 94% 0 mm
12:27 2.6 °C 1.7 °C 1004.6 hPa WNW 14.5 km/h 24.1 km/h 94% 0 mm
12:32 2.2 °C 1.3 °C 1005 hPa WNW 9.7 km/h 30.6 km/h 94% 0 mm
12:37 1.9 °C 1 °C 1005 hPa West 17.7 km/h 37 km/h 94% 0 mm
12:42 1.7 °C 1 °C 1005 hPa West 12.9 km/h 19.3 km/h 95% 0 mm
12:48 1.6 °C 0.8 °C 1005.3 hPa WNW 16.1 km/h 30.6 km/h 95% 0 mm
12:52 1.3 °C 0.6 °C 1005.3 hPa WNW 19.3 km/h 22.5 km/h 95% 0 mm
12:58 0.9 °C 0.2 °C 1005.6 hPa WNW 29 km/h 29 km/h 95% 0 mm
13:03 0.6 °C -0.2 °C 1005.6 hPa WNW 25.7 km/h 32.2 km/h 95% 0 mm
13:08 0.4 °C -0.3 °C 1006.3 hPa WNW 27.4 km/h 32.2 km/h 95% 0 mm
13:13 0.2 °C -0.5 °C 1006 hPa West 14.5 km/h 32.2 km/h 95% 0 mm
13:18 0.1 °C -0.6 °C 1006.3 hPa West 12.9 km/h 22.5 km/h 95% 0 mm
13:23 0.1 °C -0.7 °C 1006.3 hPa West 17.7 km/h 27.4 km/h 95% 0 mm
13:28 0 °C -0.6 °C 1006.3 hPa WNW 24.1 km/h 24.1 km/h 96% 0 mm
13:33 -0.1 °C -0.7 °C 1006.3 hPa WNW 16.1 km/h 30.6 km/h 96% 0 mm
13:38 -0.3 °C -0.8 °C 1006.7 hPa WSW 22.5 km/h 27.4 km/h 96% 0 mm
13:43 -0.3 °C -0.9 °C 1006.7 hPa WSW 20.9 km/h 20.9 km/h 96% 0 mm
13:48 -0.4 °C -1.1 °C 1006.7 hPa NW 24.1 km/h 30.6 km/h 95% 0 mm
13:53 -0.4 °C -1.2 °C 1006.7 hPa WSW 17.7 km/h 24.1 km/h 95% 0 mm
13:58 -0.4 °C -1.3 °C 1006.7 hPa WSW 24.1 km/h 25.7 km/h 94% 0 mm
14:03 -0.6 °C -1.6 °C 1006.7 hPa WSW 14.5 km/h 33.8 km/h 93% 0 mm
14:08 -0.6 °C -1.7 °C 1007 hPa WSW 29 km/h 29 km/h 92% 0 mm
14:13 -0.7 °C -1.8 °C 1007 hPa West 11.3 km/h 30.6 km/h 92% 0 mm
14:18 -0.8 °C -1.9 °C 1007 hPa West 20.9 km/h 29 km/h 92% 0 mm
14:23 -0.7 °C -1.8 °C 1007 hPa NW 12.9 km/h 24.1 km/h 92% 0 mm
14:28 -0.7 °C -1.8 °C 1007 hPa West 12.9 km/h 25.7 km/h 92% 0 mm
14:33 -0.8 °C -2.1 °C 1007 hPa WNW 24.1 km/h 27.4 km/h 91% 0 mm
14:38 -0.9 °C -2 °C 1007 hPa NW 14.5 km/h 25.7 km/h 92% 0 mm
14:43 -0.9 °C -2.2 °C 1007.3 hPa WSW 24.1 km/h 25.7 km/h 91% 0 mm
14:48 -1 °C -2.4 °C 1007.3 hPa WSW 14.5 km/h 33.8 km/h 90% 0 mm
14:53 -1.1 °C -2.5 °C 1007.3 hPa West 19.3 km/h 20.9 km/h 90% 0 mm
14:58 -1.1 °C -2.3 °C 1007.7 hPa West 20.9 km/h 20.9 km/h 91% 0 mm
15:03 -1.1 °C -2.4 °C 1007.7 hPa WNW 19.3 km/h 29 km/h 91% 0 mm
15:08 -1.4 °C -3.2 °C 1008 hPa West 20.9 km/h 41.8 km/h 88% 0 mm
15:13 -1.8 °C -4 °C 1008.4 hPa WNW 32.2 km/h 35.4 km/h 85% 0 mm
15:18 -2.1 °C -4.2 °C 1008.7 hPa West 14.5 km/h 33.8 km/h 85% 0 mm
15:23 -2.1 °C -4.2 °C 1009 hPa West 9.7 km/h 33.8 km/h 85% 0 mm
15:28 -2.1 °C -4.4 °C 1009 hPa SW 29 km/h 35.4 km/h 84% 0 mm
15:33 -2.1 °C -4.4 °C 1009 hPa West 29 km/h 32.2 km/h 84% 0 mm
15:38 -2.1 °C -4.7 °C 1009.4 hPa WSW 16.1 km/h 37 km/h 82% 0 mm
15:43 -2.1 °C -4.9 °C 1009.4 hPa WSW 19.3 km/h 30.6 km/h 81% 0 mm
15:48 -2.2 °C -4.8 °C 1009.7 hPa West 16.1 km/h 32.2 km/h 82% 0 mm
15:53 -2.2 °C -4.7 °C 1009.7 hPa WNW 11.3 km/h 30.6 km/h 83% 0 mm
15:58 -2.2 °C -4.3 °C 1009.7 hPa WNW 11.3 km/h 19.3 km/h 85% 0 mm
16:03 -2.1 °C -4.1 °C 1009.7 hPa West 9.7 km/h 20.9 km/h 86% 0 mm
16:08 -2.1 °C -3.9 °C 1009.7 hPa WNW 9.7 km/h 11.3 km/h 87% 0 mm
16:13 -2 °C -4.2 °C 1009.7 hPa WSW 16.1 km/h 20.9 km/h 85% 0 mm
16:18 -1.8 °C -3.8 °C 1009.7 hPa WSW 20.9 km/h 20.9 km/h 86% 0 mm
16:23 -1.7 °C -3.8 °C 1009.7 hPa West 9.7 km/h 22.5 km/h 86% 0 mm
16:29 -1.7 °C -3.9 °C 1010 hPa West 12.9 km/h 16.1 km/h 85% 0 mm
16:34 -1.7 °C -4 °C 1010 hPa West 12.9 km/h 19.3 km/h 84% 0 mm
16:39 -1.7 °C -3.9 °C 1010 hPa WNW 19.3 km/h 20.9 km/h 85% 0 mm
16:44 -2 °C -3.9 °C 1010.4 hPa WNW 4.8 km/h 17.7 km/h 87% 0 mm
16:49 -2.2 °C -4.1 °C 1010.4 hPa WSW 14.5 km/h 25.7 km/h 87% 0 mm
16:54 -2.3 °C -4.2 °C 1010.4 hPa West 11.3 km/h 22.5 km/h 87% 0 mm
16:59 -2.3 °C -4.2 °C 1010.4 hPa WSW 11.3 km/h 20.9 km/h 87% 0 mm
17:04 -2.2 °C -4.2 °C 1010.4 hPa WNW 14.5 km/h 20.9 km/h 86% 0 mm
17:09 -2.2 °C -4.4 °C 1010.7 hPa West 12.9 km/h 24.1 km/h 85% 0 mm
17:14 -2.2 °C -4.2 °C 1010.7 hPa West 9.7 km/h 19.3 km/h 86% 0 mm
17:19 -2.3 °C -4.2 °C 1010.7 hPa West 9.7 km/h 14.5 km/h 87% 0 mm
17:24 -2.2 °C -4.6 °C 1010.7 hPa WNW 9.7 km/h 29 km/h 84% 0 mm
17:29 -2.2 °C -4.4 °C 1011.1 hPa WNW 11.3 km/h 19.3 km/h 85% 0 mm
17:34 -2.4 °C -4 °C 1011.4 hPa West 30.6 km/h 32.2 km/h 89% 0 mm
17:39 -2.9 °C -4.1 °C 1011.4 hPa WNW 17.7 km/h 27.4 km/h 92% 0 mm
17:44 -3.1 °C -3.9 °C 1011.7 hPa West 19.3 km/h 22.5 km/h 94% 0 mm
17:49 -3.1 °C -3.9 °C 1011.7 hPa WNW 8 km/h 20.9 km/h 94% 0 mm
17:54 -3.2 °C -3.9 °C 1011.7 hPa WNW 9.7 km/h 17.7 km/h 95% 0 mm
17:59 -3.3 °C -3.9 °C 1011.7 hPa WSW 4.8 km/h 14.5 km/h 95% 0 mm
18:04 -3.3 °C -4 °C 1011.7 hPa WSW 12.9 km/h 17.7 km/h 95% 0 mm
18:09 -3.4 °C -4.2 °C 1011.7 hPa SW 12.9 km/h 16.1 km/h 94% 0 mm
18:14 -3.4 °C -4.3 °C 1011.7 hPa WSW 14.5 km/h 16.1 km/h 93% 0 mm
18:19 -3.4 °C -4.7 °C 1011.7 hPa West 8 km/h 16.1 km/h 91% 0 mm
18:24 -3.4 °C -4.9 °C 1012.1 hPa WSW 14.5 km/h 19.3 km/h 89% 0 mm
18:29 -3.3 °C -5.1 °C 1012.4 hPa WNW 12.9 km/h 14.5 km/h 88% 0 mm
18:35 -3.3 °C -5.3 °C 1012.4 hPa WSW 12.9 km/h 22.5 km/h 86% 0 mm
18:39 -3.3 °C -5.4 °C 1012.4 hPa West 9.7 km/h 20.9 km/h 85% 0 mm
18:44 -3.3 °C -5.6 °C 1012.8 hPa WNW 11.3 km/h 16.1 km/h 84% 0 mm
18:50 -3.2 °C -5.8 °C 1012.8 hPa West 16.1 km/h 20.9 km/h 82% 0 mm
18:55 -3.1 °C -5.9 °C 1012.8 hPa WNW 12.9 km/h 22.5 km/h 81% 0 mm
19:00 -3.1 °C -5.9 °C 1013.1 hPa WNW 14.5 km/h 14.5 km/h 81% 0 mm
19:05 -3.1 °C -5.8 °C 1013.1 hPa SW 14.5 km/h 22.5 km/h 81% 0 mm
19:10 -3.1 °C -6 °C 1013.1 hPa West 16.1 km/h 16.1 km/h 80% 0 mm
19:15 -3.1 °C -6 °C 1013.4 hPa West 9.7 km/h 17.7 km/h 80% 0 mm
19:20 -3 °C -5.8 °C 1013.4 hPa WNW 9.7 km/h 14.5 km/h 81% 0 mm
19:25 -3.1 °C -5.8 °C 1013.4 hPa West 17.7 km/h 24.1 km/h 81% 0 mm
19:30 -3.1 °C -6 °C 1013.4 hPa West 8 km/h 22.5 km/h 80% 0 mm
19:35 -3.1 °C -6.3 °C 1013.4 hPa West 19.3 km/h 30.6 km/h 78% 0 mm
19:40 -3.1 °C -6.3 °C 1013.4 hPa WNW 12.9 km/h 27.4 km/h 78% 0 mm
19:45 -3.2 °C -6.4 °C 1013.4 hPa WSW 12.9 km/h 20.9 km/h 78% 0 mm
19:50 -3.2 °C -6.8 °C 1013.8 hPa WSW 11.3 km/h 17.7 km/h 76% 0 mm
19:55 -3.2 °C -7 °C 1013.8 hPa WSW 9.7 km/h 24.1 km/h 75% 0 mm
20:00 -3.3 °C -6.8 °C 1013.8 hPa West 8 km/h 12.9 km/h 77% 0 mm
20:05 -3.4 °C -7 °C 1013.8 hPa West 8 km/h 22.5 km/h 76% 0 mm
20:10 -3.4 °C -7 °C 1014.1 hPa WSW 14.5 km/h 22.5 km/h 76% 0 mm
20:15 -3.3 °C -6.9 °C 1014.1 hPa WSW 16.1 km/h 25.7 km/h 76% 0 mm
20:20 -3.4 °C -7 °C 1014.1 hPa West 16.1 km/h 24.1 km/h 76% 0 mm
20:25 -3.4 °C -7.2 °C 1014.4 hPa WSW 14.5 km/h 25.7 km/h 75% 0 mm
20:30 -3.4 °C -7.2 °C 1014.4 hPa WSW 16.1 km/h 19.3 km/h 75% 0 mm
20:35 -3.4 °C -7.1 °C 1014.4 hPa WSW 6.4 km/h 17.7 km/h 76% 0 mm
20:40 -3.4 °C -7.1 °C 1014.8 hPa West 16.1 km/h 20.9 km/h 76% 0 mm
20:45 -3.4 °C -6.8 °C 1014.8 hPa WSW 17.7 km/h 17.7 km/h 77% 0 mm
20:50 -3.3 °C -7.2 °C 1014.8 hPa West 17.7 km/h 29 km/h 74% 0 mm
20:55 -3.2 °C -7.2 °C 1014.8 hPa WSW 16.1 km/h 29 km/h 74% 0 mm
21:00 -3.2 °C -6.9 °C 1014.8 hPa WNW 14.5 km/h 22.5 km/h 75% 0 mm
21:05 -3.2 °C -6.9 °C 1014.8 hPa WNW 17.7 km/h 22.5 km/h 75% 0 mm
21:10 -3.2 °C -7 °C 1014.8 hPa WSW 12.9 km/h 25.7 km/h 75% 0 mm
21:15 -3.2 °C -7.4 °C 1014.8 hPa WSW 14.5 km/h 27.4 km/h 73% 0 mm
21:20 -3.2 °C -7.2 °C 1015.1 hPa West 22.5 km/h 22.5 km/h 74% 0 mm
21:25 -3.2 °C -7.3 °C 1015.1 hPa WNW 22.5 km/h 24.1 km/h 73% 0 mm
21:30 -3.2 °C -7.3 °C 1015.1 hPa WSW 16.1 km/h 24.1 km/h 73% 0 mm
21:35 -3.2 °C -7.4 °C 1015.1 hPa West 16.1 km/h 19.3 km/h 73% 0 mm
21:36 -3.2 °C -7.4 °C 1015.1 hPa West 20.9 km/h 20.9 km/h 73% 0 mm
21:41 -3.2 °C -7.4 °C 1015.1 hPa West 11.3 km/h 25.7 km/h 73% 0 mm
21:46 -3.2 °C -7.6 °C 1015.1 hPa West 14.5 km/h 22.5 km/h 72% 0 mm
21:51 -3.2 °C -7.4 °C 1015.1 hPa West 9.7 km/h 19.3 km/h 73% 0 mm
21:56 -3.3 °C -7.4 °C 1015.1 hPa WSW 9.7 km/h 22.5 km/h 73% 0 mm
22:01 -3.4 °C -7.5 °C 1015.5 hPa West 14.5 km/h 19.3 km/h 73% 0 mm
22:06 -3.5 °C -7.4 °C 1015.5 hPa WSW 16.1 km/h 17.7 km/h 74% 0 mm
22:11 -3.4 °C -7.6 °C 1015.1 hPa WNW 14.5 km/h 19.3 km/h 73% 0 mm
22:16 -3.4 °C -7.8 °C 1015.1 hPa WSW 16.1 km/h 20.9 km/h 72% 0 mm
22:21 -3.5 °C -7.6 °C 1015.1 hPa West 8 km/h 20.9 km/h 73% 0 mm
22:26 -3.6 °C -7.7 °C 1015.1 hPa WSW 8 km/h 16.1 km/h 73% 0 mm
22:31 -3.7 °C -7.8 °C 1015.1 hPa West 12.9 km/h 19.3 km/h 73% 0 mm
22:36 -3.7 °C -7.7 °C 1015.1 hPa WSW 14.5 km/h 14.5 km/h 74% 0 mm
22:41 -3.8 °C -7.8 °C 1015.1 hPa WSW 19.3 km/h 19.3 km/h 74% 0 mm
22:46 -3.9 °C -7.8 °C 1015.1 hPa SW 9.7 km/h 14.5 km/h 74% 0 mm
22:51 -3.9 °C -7.9 °C 1015.1 hPa WSW 14.5 km/h 19.3 km/h 74% 0 mm
22:56 -4 °C -7.8 °C 1015.1 hPa WSW 9.7 km/h 16.1 km/h 75% 0 mm
23:02 -4 °C -7.8 °C 1015.1 hPa SW 8 km/h 16.1 km/h 75% 0 mm
23:07 -4.1 °C -7.8 °C 1015.1 hPa WSW 8 km/h 16.1 km/h 75% 0 mm
23:12 -4.1 °C -7.7 °C 1015.1 hPa WSW 6.4 km/h 12.9 km/h 76% 0 mm
23:17 -4.2 °C -7.8 °C 1015.1 hPa WSW 11.3 km/h 14.5 km/h 76% 0 mm
23:22 -4.3 °C -7.8 °C 1015.5 hPa SW 6.4 km/h 12.9 km/h 77% 0 mm
23:27 -4.4 °C -7.8 °C 1015.5 hPa WSW 8 km/h 11.3 km/h 77% 0 mm
23:32 -4.4 °C -7.8 °C 1015.5 hPa SW 8 km/h 11.3 km/h 77% 0 mm
23:37 -4.4 °C -7.8 °C 1015.5 hPa SW 6.4 km/h 12.9 km/h 77% 0 mm
23:42 -4.4 °C -7.7 °C 1015.5 hPa SW 12.9 km/h 12.9 km/h 78% 0 mm
23:47 -4.3 °C -7.6 °C 1015.5 hPa SW 9.7 km/h 12.9 km/h 78% 0 mm
23:52 -4.3 °C -7.6 °C 1015.8 hPa WSW 9.7 km/h 11.3 km/h 78% 0 mm
23:57 -4.3 °C -7.7 °C 1015.8 hPa SW 16.1 km/h 20.9 km/h 77% 0 mm
Compliments of Weather Underground